Time,TemperatureF,DewpointF,PressureIn,WindDirection,WindDirectionDegrees,WindSpeedMPH,WindSpeedGustMPH,Humidity,HourlyPrecipIn,Conditions,Clouds,dailyrainin,SoftwareType,DateUTC
2013-04-05 00:00:00,39.8,23.1,30.09,SSW,209,2.0,2.0,51,0.00,,,0.00,Wunderground v.1.15,2013-04-05 04:00:00,
2013-04-05 00:02:00,39.8,23.6,30.09,SSW,209,0.0,2.0,52,0.00,,,0.00,Wunderground v.1.15,2013-04-05 04:02:00,
2013-04-05 00:04:00,39.7,23.0,30.09,SSW,209,0.0,2.0,51,0.00,,,0.00,Wunderground v.1.15,2013-04-05 04:04:00,
2013-04-05 00:06:00,39.7,23.0,30.09,North,32767,-999.0,2.0,51,0.00,,,0.00,Wunderground v.1.15,2013-04-05 04:06:00,
2013-04-05 00:08:00,39.7,23.0,30.09,North,32767,-999.0,2.0,51,0.00,,,0.00,Wunderground v.1.15,2013-04-05 04:08:00,
2013-04-05 00:12:00,39.7,23.0,30.08,North,32767,-999.0,0.0,51,0.00,,,0.00,Wunderground v.1.15,2013-04-05 04:12:00,
2013-04-05 00:14:00,39.7,23.0,30.08,North,32767,-999.0,0.0,51,0.00,,,0.00,Wunderground v.1.15,2013-04-05 04:14:00,
2013-04-05 00:16:00,39.6,22.9,30.08,North,32767,-999.0,0.0,51,0.00,,,0.00,Wunderground v.1.15,2013-04-05 04:16:00,
2013-04-05 00:18:00,39.6,22.9,30.08,North,32767,-999.0,0.0,51,0.00,,,0.00,Wunderground v.1.15,2013-04-05 04:18:00,
2013-04-05 00:20:00,39.6,22.9,30.08,North,32767,-999.0,0.0,51,0.00,,,0.00,Wunderground v.1.15,2013-04-05 04:20:00,
2013-04-05 00:24:00,39.6,22.9,30.08,North,32767,-999.0,0.0,51,0.00,,,0.00,Wunderground v.1.15,2013-04-05 04:24:00,
2013-04-05 00:26:00,39.5,22.8,30.08,North,32767,-999.0,0.0,51,0.00,,,0.00,Wunderground v.1.15,2013-04-05 04:26:00,
2013-04-05 00:30:00,39.5,22.8,30.08,North,32767,-999.0,0.0,51,0.00,,,0.00,Wunderground v.1.15,2013-04-05 04:30:00,
2013-04-05 00:32:00,39.5,23.3,30.08,North,32767,-999.0,0.0,52,0.00,,,0.00,Wunderground v.1.15,2013-04-05 04:32:00,
2013-04-05 00:36:00,39.3,23.1,30.08,North,32767,-999.0,0.0,52,0.00,,,0.00,Wunderground v.1.15,2013-04-05 04:36:00,
2013-04-05 00:40:00,39.2,23.5,30.07,North,32767,-999.0,0.0,53,0.00,,,0.00,Wunderground v.1.15,2013-04-05 04:40:00,
2013-04-05 00:42:00,39.2,23.5,30.07,North,32767,-999.0,0.0,53,0.00,,,0.00,Wunderground v.1.15,2013-04-05 04:42:00,
2013-04-05 00:44:00,39.2,23.0,30.07,North,32767,-999.0,0.0,52,0.00,,,0.00,Wunderground v.1.15,2013-04-05 04:44:00,
2013-04-05 00:46:00,39.1,23.4,30.07,North,32767,-999.0,0.0,53,0.00,,,0.00,Wunderground v.1.15,2013-04-05 04:46:00,
2013-04-05 00:48:00,39.1,22.9,30.07,North,32767,-999.0,0.0,52,0.00,,,0.00,Wunderground v.1.15,2013-04-05 04:48:00,
2013-04-05 00:52:00,39.1,23.4,30.07,North,32767,-999.0,0.0,53,0.00,,,0.00,Wunderground v.1.15,2013-04-05 04:52:00,
2013-04-05 00:54:00,39.1,23.8,30.07,North,32767,-999.0,0.0,54,0.00,,,0.00,Wunderground v.1.15,2013-04-05 04:54:00,
2013-04-05 00:56:00,39.0,23.3,30.07,North,32767,-999.0,0.0,53,0.00,,,0.00,Wunderground v.1.15,2013-04-05 04:56:00,
2013-04-05 01:00:00,39.0,23.7,30.07,North,32767,-999.0,0.0,54,0.00,,,0.00,Wunderground v.1.15,2013-04-05 05:00:00,
2013-04-05 01:04:00,38.9,23.7,30.07,North,32767,-999.0,0.0,54,0.00,,,0.00,Wunderground v.1.15,2013-04-05 05:04:00,
2013-04-05 01:06:00,38.8,23.6,30.07,North,32767,-999.0,0.0,54,0.00,,,0.00,Wunderground v.1.15,2013-04-05 05:06:00,
2013-04-05 01:12:00,38.8,24.0,30.07,North,32767,-999.0,0.0,55,0.00,,,0.00,Wunderground v.1.15,2013-04-05 05:12:00,
2013-04-05 01:14:00,38.7,23.9,30.07,North,32767,-999.0,0.0,55,0.00,,,0.00,Wunderground v.1.15,2013-04-05 05:14:00,
2013-04-05 01:28:00,38.7,24.8,30.06,North,32767,-999.0,0.0,57,0.00,,,0.00,Wunderground v.1.15,2013-04-05 05:28:00,
2013-04-05 01:30:00,38.7,24.8,30.06,North,32767,-999.0,0.0,57,0.00,,,0.00,Wunderground v.1.15,2013-04-05 05:30:00,
2013-04-05 01:32:00,38.6,24.7,30.06,North,32767,-999.0,0.0,57,0.00,,,0.00,Wunderground v.1.15,2013-04-05 05:32:00,
2013-04-05 01:36:00,38.6,25.1,30.06,North,32767,-999.0,0.0,58,0.00,,,0.00,Wunderground v.1.15,2013-04-05 05:36:00,
2013-04-05 01:38:00,38.6,25.1,30.06,North,32767,-999.0,0.0,58,0.00,,,0.00,Wunderground v.1.15,2013-04-05 05:38:00,
2013-04-05 01:40:00,38.6,25.1,30.06,North,32767,-999.0,0.0,58,0.00,,,0.00,Wunderground v.1.15,2013-04-05 05:40:00,
2013-04-05 01:42:00,38.5,25.4,30.06,North,32767,-999.0,0.0,59,0.00,,,0.00,Wunderground v.1.15,2013-04-05 05:42:00,
2013-04-05 01:44:00,38.5,25.0,30.05,North,32767,-999.0,0.0,58,0.00,,,0.00,Wunderground v.1.15,2013-04-05 05:44:00,
2013-04-05 01:50:00,38.4,25.3,30.05,North,32767,-999.0,0.0,59,0.00,,,0.00,Wunderground v.1.15,2013-04-05 05:50:00,
2013-04-05 01:52:00,38.4,25.3,30.05,North,32767,-999.0,0.0,59,0.00,,,0.00,Wunderground v.1.15,2013-04-05 05:52:00,
2013-04-05 01:54:00,38.3,25.6,30.05,North,32767,-999.0,0.0,60,0.00,,,0.00,Wunderground v.1.15,2013-04-05 05:54:00,
2013-04-05 02:00:00,38.2,25.9,30.04,North,32767,-999.0,0.0,61,0.00,,,0.00,Wunderground v.1.15,2013-04-05 06:00:00,
2013-04-05 02:02:00,38.2,25.9,30.04,North,32767,-999.0,0.0,61,0.00,,,0.00,Wunderground v.1.15,2013-04-05 06:02:00,
2013-04-05 02:06:00,38.2,25.9,30.04,North,32767,-999.0,0.0,61,0.00,,,0.00,Wunderground v.1.15,2013-04-05 06:06:00,
2013-04-05 02:10:00,38.1,25.8,30.03,North,32767,-999.0,0.0,61,0.00,,,0.00,Wunderground v.1.15,2013-04-05 06:10:00,
2013-04-05 02:12:00,38.2,25.9,30.03,North,32767,-999.0,0.0,61,0.00,,,0.00,Wunderground v.1.15,2013-04-05 06:12:00,
2013-04-05 02:18:00,38.0,25.7,30.02,North,32767,-999.0,0.0,61,0.00,,,0.00,Wunderground v.1.15,2013-04-05 06:18:00,
2013-04-05 02:20:00,38.0,25.7,30.03,North,32767,-999.0,0.0,61,0.00,,,0.00,Wunderground v.1.15,2013-04-05 06:20:00,
2013-04-05 02:24:00,38.0,26.1,30.03,North,32767,-999.0,0.0,62,0.00,,,0.00,Wunderground v.1.15,2013-04-05 06:24:00,
2013-04-05 02:26:00,38.0,26.1,30.03,North,32767,-999.0,0.0,62,0.00,,,0.00,Wunderground v.1.15,2013-04-05 06:26:00,
2013-04-05 02:32:00,37.9,26.0,30.02,North,32767,-999.0,0.0,62,0.00,,,0.00,Wunderground v.1.15,2013-04-05 06:32:00,
2013-04-05 02:36:00,37.9,26.0,30.02,North,32767,-999.0,0.0,62,0.00,,,0.00,Wunderground v.1.15,2013-04-05 06:36:00,
2013-04-05 02:38:00,37.9,26.0,30.02,North,32767,-999.0,0.0,62,0.00,,,0.00,Wunderground v.1.15,2013-04-05 06:38:00,
2013-04-05 02:40:00,37.9,26.4,30.02,North,32767,-999.0,0.0,63,0.00,,,0.00,Wunderground v.1.15,2013-04-05 06:40:00,
2013-04-05 02:46:00,37.9,26.4,30.02,North,32767,-999.0,0.0,63,0.00,,,0.00,Wunderground v.1.15,2013-04-05 06:46:00,
2013-04-05 02:48:00,37.9,26.4,30.02,North,32767,-999.0,0.0,63,0.00,,,0.00,Wunderground v.1.15,2013-04-05 06:48:00,
2013-04-05 02:54:00,37.7,26.6,30.01,North,32767,-999.0,0.0,64,0.00,,,0.00,Wunderground v.1.15,2013-04-05 06:54:00,
2013-04-05 02:56:00,37.7,26.6,30.01,North,32767,-999.0,0.0,64,0.00,,,0.00,Wunderground v.1.15,2013-04-05 06:56:00,
2013-04-05 02:58:00,37.6,26.5,30.01,North,32767,-999.0,0.0,64,0.00,,,0.00,Wunderground v.1.15,2013-04-05 06:58:00,
2013-04-05 03:00:00,37.6,26.5,30.01,North,32767,-999.0,0.0,64,0.00,,,0.00,Wunderground v.1.15,2013-04-05 07:00:00,
2013-04-05 03:04:00,37.5,26.4,30.01,North,32767,-999.0,0.0,64,0.00,,,0.00,Wunderground v.1.15,2013-04-05 07:04:00,
2013-04-05 03:06:00,37.5,26.4,30.01,North,32767,-999.0,0.0,64,0.00,,,0.00,Wunderground v.1.15,2013-04-05 07:06:00,
2013-04-05 03:08:00,37.6,26.5,30.02,North,32767,-999.0,0.0,64,0.00,,,0.00,Wunderground v.1.15,2013-04-05 07:08:00,
2013-04-05 03:10:00,37.6,26.5,30.02,North,32767,-999.0,0.0,64,0.00,,,0.00,Wunderground v.1.15,2013-04-05 07:10:00,
2013-04-05 03:16:00,37.6,26.5,30.02,North,32767,-999.0,0.0,64,0.00,,,0.00,Wunderground v.1.15,2013-04-05 07:16:00,
2013-04-05 03:18:00,37.6,26.5,30.01,North,32767,-999.0,0.0,64,0.00,,,0.00,Wunderground v.1.15,2013-04-05 07:18:00,
2013-04-05 03:24:00,37.6,26.5,30.01,North,32767,-999.0,0.0,64,0.00,,,0.00,Wunderground v.1.15,2013-04-05 07:24:00,
2013-04-05 03:28:00,37.6,26.9,30.01,North,32767,-999.0,0.0,65,0.00,,,0.00,Wunderground v.1.15,2013-04-05 07:28:00,
2013-04-05 03:30:00,37.6,26.9,30.01,North,32767,-999.0,0.0,65,0.00,,,0.00,Wunderground v.1.15,2013-04-05 07:30:00,
2013-04-05 03:36:00,37.7,27.0,30.01,North,32767,-999.0,0.0,65,0.00,,,0.00,Wunderground v.1.15,2013-04-05 07:36:00,
2013-04-05 03:38:00,37.7,27.4,30.01,North,32767,-999.0,0.0,66,0.00,,,0.00,Wunderground v.1.15,2013-04-05 07:38:00,
2013-04-05 03:40:00,37.7,27.4,30.01,North,32767,-999.0,0.0,66,0.00,,,0.00,Wunderground v.1.15,2013-04-05 07:40:00,
2013-04-05 03:42:00,37.7,27.7,30.01,North,32767,-999.0,0.0,67,0.00,,,0.00,Wunderground v.1.15,2013-04-05 07:42:00,
2013-04-05 03:46:00,37.7,27.4,30.00,North,32767,-999.0,0.0,66,0.00,,,0.00,Wunderground v.1.15,2013-04-05 07:46:00,
2013-04-05 03:48:00,37.7,27.7,30.00,North,32767,-999.0,0.0,67,0.00,,,0.00,Wunderground v.1.15,2013-04-05 07:48:00,
2013-04-05 03:54:00,37.7,27.7,30.00,North,32767,-999.0,0.0,67,0.00,,,0.00,Wunderground v.1.15,2013-04-05 07:54:00,
2013-04-05 03:56:00,37.7,27.4,30.00,North,32767,-999.0,0.0,66,0.00,,,0.00,Wunderground v.1.15,2013-04-05 07:56:00,
2013-04-05 04:00:00,37.7,27.4,30.00,North,32767,-999.0,0.0,66,0.00,,,0.00,Wunderground v.1.15,2013-04-05 08:00:00,
2013-04-05 04:02:00,37.7,27.4,30.00,North,32767,-999.0,0.0,66,0.00,,,0.00,Wunderground v.1.15,2013-04-05 08:02:00,
2013-04-05 04:06:00,37.8,27.5,30.00,North,32767,-999.0,0.0,66,0.00,,,0.00,Wunderground v.1.15,2013-04-05 08:06:00,
2013-04-05 04:08:00,37.8,27.5,30.00,North,32767,-999.0,0.0,66,0.00,,,0.00,Wunderground v.1.15,2013-04-05 08:08:00,
2013-04-05 04:14:00,37.8,27.5,29.99,North,32767,-999.0,0.0,66,0.00,,,0.00,Wunderground v.1.15,2013-04-05 08:14:00,
2013-04-05 04:16:00,37.7,27.4,29.99,North,32767,-999.0,0.0,66,0.00,,,0.00,Wunderground v.1.15,2013-04-05 08:16:00,
2013-04-05 04:18:00,37.7,27.7,29.99,North,32767,-999.0,0.0,67,0.00,,,0.00,Wunderground v.1.15,2013-04-05 08:18:00,
2013-04-05 04:20:00,37.7,27.7,29.99,North,32767,-999.0,0.0,67,0.00,,,0.00,Wunderground v.1.15,2013-04-05 08:20:00,
2013-04-05 04:22:00,37.6,27.6,29.99,North,32767,-999.0,0.0,67,0.00,,,0.00,Wunderground v.1.15,2013-04-05 08:22:00,
2013-04-05 04:24:00,37.6,27.6,29.99,North,32767,-999.0,0.0,67,0.00,,,0.00,Wunderground v.1.15,2013-04-05 08:24:00,
2013-04-05 04:26:00,37.5,27.5,29.99,North,32767,-999.0,0.0,67,0.00,,,0.00,Wunderground v.1.15,2013-04-05 08:26:00,
2013-04-05 04:32:00,37.2,27.2,29.99,North,32767,-999.0,0.0,67,0.00,,,0.00,Wunderground v.1.15,2013-04-05 08:32:00,
2013-04-05 04:34:00,37.1,27.2,29.99,North,32767,-999.0,0.0,67,0.00,,,0.00,Wunderground v.1.15,2013-04-05 08:34:00,
2013-04-05 04:38:00,37.0,27.1,29.98,North,32767,-999.0,0.0,67,0.00,,,0.00,Wunderground v.1.15,2013-04-05 08:38:00,
2013-04-05 04:40:00,37.0,27.1,29.98,North,32767,-999.0,0.0,67,0.00,,,0.00,Wunderground v.1.15,2013-04-05 08:40:00,
2013-04-05 04:44:00,36.8,27.2,29.98,North,32767,-999.0,0.0,68,0.00,,,0.00,Wunderground v.1.15,2013-04-05 08:44:00,
2013-04-05 04:46:00,36.8,27.2,29.98,North,32767,-999.0,0.0,68,0.00,,,0.00,Wunderground v.1.15,2013-04-05 08:46:00,
2013-04-05 04:50:00,36.7,27.1,29.98,North,32767,-999.0,0.0,68,0.00,,,0.00,Wunderground v.1.15,2013-04-05 08:50:00,
2013-04-05 04:54:00,36.7,27.1,29.98,North,32767,-999.0,0.0,68,0.00,,,0.00,Wunderground v.1.15,2013-04-05 08:54:00,
2013-04-05 04:56:00,36.7,27.1,29.98,North,32767,-999.0,0.0,68,0.00,,,0.00,Wunderground v.1.15,2013-04-05 08:56:00,
2013-04-05 04:58:00,36.6,27.4,29.98,North,32767,-999.0,0.0,69,0.00,,,0.00,Wunderground v.1.15,2013-04-05 08:58:00,
2013-04-05 05:00:00,36.7,27.1,29.98,North,32767,-999.0,0.0,68,0.00,,,0.00,Wunderground v.1.15,2013-04-05 09:00:00,
2013-04-05 05:02:00,36.7,27.1,29.98,North,32767,-999.0,0.0,68,0.00,,,0.00,Wunderground v.1.15,2013-04-05 09:02:00,
2013-04-05 05:06:00,36.6,27.4,29.98,North,32767,-999.0,0.0,69,0.00,,,0.00,Wunderground v.1.15,2013-04-05 09:06:00,
2013-04-05 05:08:00,36.6,27.4,29.98,North,32767,-999.0,0.0,69,0.00,,,0.00,Wunderground v.1.15,2013-04-05 09:08:00,
2013-04-05 05:14:00,36.3,27.4,29.98,North,32767,-999.0,0.0,70,0.00,,,0.00,Wunderground v.1.15,2013-04-05 09:14:00,
2013-04-05 05:16:00,36.2,27.4,29.98,North,32767,-999.0,0.0,70,0.00,,,0.00,Wunderground v.1.15,2013-04-05 09:16:00,
2013-04-05 05:18:00,36.3,27.4,29.98,North,32767,-999.0,0.0,70,0.00,,,0.00,Wunderground v.1.15,2013-04-05 09:18:00,
2013-04-05 05:20:00,36.3,27.4,29.98,North,32767,-999.0,0.0,70,0.00,,,0.00,Wunderground v.1.15,2013-04-05 09:20:00,
2013-04-05 05:24:00,36.2,27.4,29.98,North,32767,-999.0,0.0,70,0.00,,,0.00,Wunderground v.1.15,2013-04-05 09:24:00,
2013-04-05 05:26:00,36.1,27.3,29.98,North,32767,-999.0,0.0,70,0.00,,,0.00,Wunderground v.1.15,2013-04-05 09:26:00,
2013-04-05 05:30:00,35.9,27.1,29.98,North,32767,-999.0,0.0,70,0.00,,,0.00,Wunderground v.1.15,2013-04-05 09:30:00,
2013-04-05 05:34:00,35.8,27.3,29.98,North,32767,-999.0,0.0,71,0.00,,,0.00,Wunderground v.1.15,2013-04-05 09:34:00,
2013-04-05 05:36:00,35.7,26.9,29.98,North,32767,-999.0,0.0,70,0.00,,,0.00,Wunderground v.1.15,2013-04-05 09:36:00,
2013-04-05 05:38:00,35.6,27.1,29.98,North,32767,-999.0,0.0,71,0.00,,,0.00,Wunderground v.1.15,2013-04-05 09:38:00,
2013-04-05 05:40:00,35.5,27.0,29.98,North,32767,-999.0,0.0,71,0.00,,,0.00,Wunderground v.1.15,2013-04-05 09:40:00,
2013-04-05 05:46:00,35.1,27.0,29.97,North,32767,-999.0,0.0,72,0.00,,,0.00,Wunderground v.1.15,2013-04-05 09:46:00,
2013-04-05 05:48:00,35.1,27.0,29.97,North,32767,-999.0,0.0,72,0.00,,,0.00,Wunderground v.1.15,2013-04-05 09:48:00,
2013-04-05 05:52:00,35.2,27.1,29.97,North,32767,-999.0,0.0,72,0.00,,,0.00,Wunderground v.1.15,2013-04-05 09:52:00,
2013-04-05 05:58:00,35.4,27.3,29.97,North,32767,-999.0,0.0,72,0.00,,,0.00,Wunderground v.1.15,2013-04-05 09:58:00,
2013-04-05 06:00:00,35.4,27.3,29.96,North,32767,-999.0,0.0,72,0.00,,,0.00,Wunderground v.1.15,2013-04-05 10:00:00,
2013-04-05 06:06:00,34.7,26.9,29.96,North,32767,-999.0,0.0,73,0.00,,,0.00,Wunderground v.1.15,2013-04-05 10:06:00,
2013-04-05 06:10:00,34.1,26.7,29.96,North,32767,-999.0,0.0,74,0.00,,,0.00,Wunderground v.1.15,2013-04-05 10:10:00,
2013-04-05 06:14:00,33.9,26.5,29.96,North,32767,-999.0,0.0,74,0.00,,,0.00,Wunderground v.1.15,2013-04-05 10:14:00,
2013-04-05 06:18:00,33.8,26.4,29.96,North,32767,-999.0,0.0,74,0.00,,,0.00,Wunderground v.1.15,2013-04-05 10:18:00,
2013-04-05 06:20:00,33.9,26.5,29.96,North,32767,-999.0,0.0,74,0.00,,,0.00,Wunderground v.1.15,2013-04-05 10:20:00,
2013-04-05 06:24:00,33.8,26.4,29.96,North,32767,-999.0,0.0,74,0.00,,,0.00,Wunderground v.1.15,2013-04-05 10:24:00,
2013-04-05 06:26:00,33.7,26.3,29.96,North,32767,-999.0,0.0,74,0.00,,,0.00,Wunderground v.1.15,2013-04-05 10:26:00,
2013-04-05 06:30:00,33.6,26.5,29.95,North,32767,-999.0,0.0,75,0.00,,,0.00,Wunderground v.1.15,2013-04-05 10:30:00,
2013-04-05 06:34:00,33.5,26.4,29.96,North,32767,-999.0,0.0,75,0.00,,,0.00,Wunderground v.1.15,2013-04-05 10:34:00,
2013-04-05 06:36:00,33.3,26.5,29.95,North,32767,-999.0,0.0,76,0.00,,,0.00,Wunderground v.1.15,2013-04-05 10:36:00,
2013-04-05 06:40:00,32.8,26.4,29.95,North,32767,-999.0,0.0,77,0.00,,,0.00,Wunderground v.1.15,2013-04-05 10:40:00,
2013-04-05 06:44:00,32.5,26.1,29.96,North,32767,-999.0,0.0,77,0.00,,,0.00,Wunderground v.1.15,2013-04-05 10:44:00,
2013-04-05 06:48:00,32.5,26.4,29.96,North,32767,-999.0,0.0,78,0.00,,,0.00,Wunderground v.1.15,2013-04-05 10:48:00,
2013-04-05 06:54:00,32.6,26.8,29.96,North,32767,-999.0,0.0,79,0.00,,,0.00,Wunderground v.1.15,2013-04-05 10:54:00,
2013-04-05 06:56:00,32.6,26.5,29.96,North,32767,-999.0,0.0,78,0.00,,,0.00,Wunderground v.1.15,2013-04-05 10:56:00,
2013-04-05 06:58:00,32.6,26.5,29.96,North,32767,-999.0,0.0,78,0.00,,,0.00,Wunderground v.1.15,2013-04-05 10:58:00,
2013-04-05 07:02:00,32.8,26.7,29.96,North,32767,-999.0,0.0,78,0.00,,,0.00,Wunderground v.1.15,2013-04-05 11:02:00,
2013-04-05 07:04:00,32.9,26.8,29.96,North,32767,-999.0,0.0,78,0.00,,,0.00,Wunderground v.1.15,2013-04-05 11:04:00,
2013-04-05 07:08:00,32.8,26.7,29.95,North,32767,-999.0,0.0,78,0.00,,,0.00,Wunderground v.1.15,2013-04-05 11:08:00,
2013-04-05 07:10:00,33.0,26.9,29.95,North,32767,-999.0,0.0,78,0.00,,,0.00,Wunderground v.1.15,2013-04-05 11:10:00,
2013-04-05 07:12:00,33.2,27.1,29.95,North,32767,-999.0,0.0,78,0.00,,,0.00,Wunderground v.1.15,2013-04-05 11:12:00,
2013-04-05 07:18:00,33.9,27.4,29.95,North,32767,-999.0,0.0,77,0.00,,,0.00,Wunderground v.1.15,2013-04-05 11:18:00,
2013-04-05 07:20:00,34.1,27.6,29.95,North,32767,-999.0,0.0,77,0.00,,,0.00,Wunderground v.1.15,2013-04-05 11:20:00,
2013-04-05 07:22:00,34.1,27.6,29.95,North,32767,-999.0,0.0,77,0.00,,,0.00,Wunderground v.1.15,2013-04-05 11:22:00,
2013-04-05 07:24:00,34.1,28.0,29.95,North,32767,-999.0,0.0,78,0.00,,,0.00,Wunderground v.1.15,2013-04-05 11:24:00,
2013-04-05 07:26:00,34.4,28.2,29.95,North,32767,-999.0,0.0,78,0.00,,,0.00,Wunderground v.1.15,2013-04-05 11:26:00,
2013-04-05 07:28:00,34.8,28.6,29.95,North,32767,-999.0,0.0,78,0.00,,,0.00,Wunderground v.1.15,2013-04-05 11:28:00,
2013-04-05 07:34:00,36.0,28.8,29.95,North,32767,-999.0,0.0,75,0.00,,,0.00,Wunderground v.1.15,2013-04-05 11:34:00,
2013-04-05 07:40:00,36.8,29.3,29.95,North,32767,-999.0,0.0,74,0.00,,,0.00,Wunderground v.1.15,2013-04-05 11:40:00,
2013-04-05 07:42:00,37.0,29.5,29.95,North,32767,-999.0,0.0,74,0.00,,,0.00,Wunderground v.1.15,2013-04-05 11:42:00,
2013-04-05 07:44:00,37.1,29.2,29.95,North,32767,-999.0,0.0,73,0.00,,,0.00,Wunderground v.1.15,2013-04-05 11:44:00,
2013-04-05 07:50:00,37.5,29.3,29.95,North,32767,-999.0,0.0,72,0.00,,,0.00,Wunderground v.1.15,2013-04-05 11:50:00,
2013-04-05 07:54:00,37.7,29.1,29.94,North,32767,-999.0,0.0,71,0.00,,,0.00,Wunderground v.1.15,2013-04-05 11:54:00,
2013-04-05 07:56:00,37.8,29.6,29.94,North,32767,-999.0,0.0,72,0.00,,,0.00,Wunderground v.1.15,2013-04-05 11:56:00,
2013-04-05 07:58:00,38.0,29.8,29.94,North,32767,-999.0,0.0,72,0.00,,,0.00,Wunderground v.1.15,2013-04-05 11:58:00,
2013-04-05 08:02:00,38.3,29.7,29.94,North,32767,-999.0,0.0,71,0.00,,,0.00,Wunderground v.1.15,2013-04-05 12:02:00,
2013-04-05 08:06:00,38.4,29.1,29.93,North,32767,-999.0,0.0,69,0.00,,,0.00,Wunderground v.1.15,2013-04-05 12:06:00,
2013-04-05 08:08:00,38.5,28.9,29.93,North,32767,-999.0,0.0,68,0.00,,,0.00,Wunderground v.1.15,2013-04-05 12:08:00,
2013-04-05 08:10:00,38.6,29.7,29.93,North,32767,-999.0,0.0,70,0.00,,,0.00,Wunderground v.1.15,2013-04-05 12:10:00,
2013-04-05 08:14:00,38.9,29.2,29.93,North,32767,-999.0,0.0,68,0.00,,,0.00,Wunderground v.1.15,2013-04-05 12:14:00,
2013-04-05 08:16:00,39.0,29.3,29.93,North,32767,-999.0,0.0,68,0.00,,,0.00,Wunderground v.1.15,2013-04-05 12:16:00,
2013-04-05 08:18:00,39.1,29.4,29.93,North,32767,-999.0,0.0,68,0.00,,,0.00,Wunderground v.1.15,2013-04-05 12:18:00,
2013-04-05 08:20:00,39.3,29.3,29.93,North,32767,-999.0,0.0,67,0.00,,,0.00,Wunderground v.1.15,2013-04-05 12:20:00,
2013-04-05 08:24:00,40.1,29.6,29.93,North,32767,-999.0,0.0,66,0.00,,,0.00,Wunderground v.1.15,2013-04-05 12:24:00,
2013-04-05 08:26:00,40.5,29.7,29.93,North,32767,-999.0,0.0,65,0.00,,,0.00,Wunderground v.1.15,2013-04-05 12:26:00,
2013-04-05 08:28:00,40.8,29.6,29.93,North,32767,-999.0,0.0,64,0.00,,,0.00,Wunderground v.1.15,2013-04-05 12:28:00,
2013-04-05 08:30:00,41.1,29.5,29.92,North,32767,-999.0,0.0,63,0.00,,,0.00,Wunderground v.1.15,2013-04-05 12:30:00,
2013-04-05 08:34:00,41.4,28.5,29.92,North,32767,-999.0,0.0,60,0.00,,,0.00,Wunderground v.1.15,2013-04-05 12:34:00,
2013-04-05 08:38:00,41.5,29.0,29.93,North,32767,-999.0,0.0,61,0.00,,,0.00,Wunderground v.1.15,2013-04-05 12:38:00,
2013-04-05 08:42:00,41.7,28.8,29.92,North,32767,-999.0,0.0,60,0.00,,,0.00,Wunderground v.1.15,2013-04-05 12:42:00,
2013-04-05 08:44:00,41.7,28.4,29.92,North,32767,-999.0,0.0,59,0.00,,,0.00,Wunderground v.1.15,2013-04-05 12:44:00,
2013-04-05 08:50:00,41.6,27.9,29.92,North,32767,-999.0,0.0,58,0.00,,,0.00,Wunderground v.1.15,2013-04-05 12:50:00,
2013-04-05 08:52:00,41.6,27.5,29.92,North,32767,-999.0,0.0,57,0.00,,,0.00,Wunderground v.1.15,2013-04-05 12:52:00,
2013-04-05 08:54:00,41.8,28.1,29.92,North,32767,-999.0,0.0,58,0.00,,,0.00,Wunderground v.1.15,2013-04-05 12:54:00,
2013-04-05 08:58:00,41.8,28.1,29.92,North,32767,-999.0,0.0,58,0.00,,,0.00,Wunderground v.1.15,2013-04-05 12:58:00,
2013-04-05 09:00:00,42.0,28.7,29.91,North,32767,-999.0,0.0,59,0.00,,,0.00,Wunderground v.1.15,2013-04-05 13:00:00,
2013-04-05 09:02:00,42.2,28.9,29.91,North,32767,-999.0,0.0,59,0.00,,,0.00,Wunderground v.1.15,2013-04-05 13:02:00,
2013-04-05 09:04:00,42.3,28.1,29.91,North,32767,-999.0,0.0,57,0.00,,,0.00,Wunderground v.1.15,2013-04-05 13:04:00,
2013-04-05 09:10:00,43.3,28.6,29.91,North,32767,-999.0,0.0,56,0.00,,,0.00,Wunderground v.1.15,2013-04-05 13:10:00,
2013-04-05 09:12:00,43.5,27.9,29.91,North,32767,-999.0,0.0,54,0.00,,,0.00,Wunderground v.1.15,2013-04-05 13:12:00,
2013-04-05 09:14:00,43.7,28.1,29.91,North,32767,-999.0,0.0,54,0.00,,,0.00,Wunderground v.1.15,2013-04-05 13:14:00,
2013-04-05 09:18:00,44.1,28.9,29.90,North,32767,-999.0,0.0,55,0.00,,,0.00,Wunderground v.1.15,2013-04-05 13:18:00,
2013-04-05 09:24:00,44.1,27.6,29.90,North,32767,-999.0,0.0,52,0.00,,,0.00,Wunderground v.1.15,2013-04-05 13:24:00,
2013-04-05 09:26:00,43.8,26.8,29.91,North,32767,-999.0,0.0,51,0.00,,,0.00,Wunderground v.1.15,2013-04-05 13:26:00,
2013-04-05 09:30:00,43.6,27.6,29.91,North,32767,-999.0,0.0,53,0.00,,,0.00,Wunderground v.1.15,2013-04-05 13:30:00,
2013-04-05 09:32:00,44.1,28.5,29.90,North,32767,-999.0,0.0,54,0.00,,,0.00,Wunderground v.1.15,2013-04-05 13:32:00,
2013-04-05 09:36:00,44.6,27.6,29.90,North,32767,-999.0,0.0,51,0.00,,,0.00,Wunderground v.1.15,2013-04-05 13:36:00,
2013-04-05 09:38:00,44.9,27.4,29.90,North,32767,-999.0,0.0,50,0.00,,,0.00,Wunderground v.1.15,2013-04-05 13:38:00,
2013-04-05 09:42:00,45.3,27.7,29.90,North,32767,-999.0,0.0,50,0.00,,,0.00,Wunderground v.1.15,2013-04-05 13:42:00,
2013-04-05 09:44:00,45.4,26.8,29.90,North,32767,-999.0,0.0,48,0.00,,,0.00,Wunderground v.1.15,2013-04-05 13:44:00,
2013-04-05 09:46:00,45.8,28.7,29.90,North,32767,-999.0,0.0,51,0.00,,,0.00,Wunderground v.1.15,2013-04-05 13:46:00,
2013-04-05 09:50:00,46.0,26.9,29.89,North,32767,-999.0,0.0,47,0.00,,,0.00,Wunderground v.1.15,2013-04-05 13:50:00,
2013-04-05 09:56:00,46.3,26.1,29.89,North,32767,-999.0,0.0,45,0.00,,,0.00,Wunderground v.1.15,2013-04-05 13:56:00,
2013-04-05 09:58:00,46.3,26.6,29.90,North,32767,-999.0,0.0,46,0.00,,,0.00,Wunderground v.1.15,2013-04-05 13:58:00,
2013-04-05 10:00:00,46.7,27.5,29.90,North,32767,-999.0,0.0,47,0.00,,,0.00,Wunderground v.1.15,2013-04-05 14:00:00,
2013-04-05 10:02:00,47.0,26.7,29.89,North,32767,-999.0,0.0,45,0.00,,,0.00,Wunderground v.1.15,2013-04-05 14:02:00,
2013-04-05 10:06:00,47.2,25.8,29.89,North,32767,-999.0,0.0,43,0.00,,,0.00,Wunderground v.1.15,2013-04-05 14:06:00,
2013-04-05 10:10:00,47.4,26.0,29.90,North,32767,-999.0,0.0,43,0.00,,,0.00,Wunderground v.1.15,2013-04-05 14:10:00,
2013-04-05 10:12:00,47.4,26.0,29.90,North,32767,-999.0,0.0,43,0.00,,,0.00,Wunderground v.1.15,2013-04-05 14:12:00,
2013-04-05 10:18:00,47.8,25.8,29.89,North,32767,-999.0,0.0,42,0.00,,,0.00,Wunderground v.1.15,2013-04-05 14:18:00,
2013-04-05 10:20:00,47.8,25.8,29.89,North,32767,-999.0,0.0,42,0.00,,,0.00,Wunderground v.1.15,2013-04-05 14:20:00,
2013-04-05 10:22:00,47.9,25.3,29.89,North,32767,-999.0,0.0,41,0.00,,,0.00,Wunderground v.1.15,2013-04-05 14:22:00,
2013-04-05 10:26:00,48.1,26.1,29.89,North,32767,-999.0,0.0,42,0.00,,,0.00,Wunderground v.1.15,2013-04-05 14:26:00,
2013-04-05 10:28:00,48.3,26.8,29.89,North,32767,-999.0,0.0,43,0.00,,,0.00,Wunderground v.1.15,2013-04-05 14:28:00,
2013-04-05 10:34:00,49.3,28.3,29.89,North,32767,-999.0,0.0,44,0.00,,,0.00,Wunderground v.1.15,2013-04-05 14:34:00,
2013-04-05 10:36:00,49.3,26.6,29.88,North,32767,-999.0,0.0,41,0.00,,,0.00,Wunderground v.1.15,2013-04-05 14:36:00,
2013-04-05 10:40:00,49.5,25.5,29.88,North,32767,-999.0,0.0,39,0.00,,,0.00,Wunderground v.1.15,2013-04-05 14:40:00,
2013-04-05 10:42:00,49.6,26.2,29.88,North,32767,-999.0,0.0,40,0.00,,,0.00,Wunderground v.1.15,2013-04-05 14:42:00,
2013-04-05 10:44:00,49.7,25.7,29.88,North,32767,-999.0,0.0,39,0.00,,,0.00,Wunderground v.1.15,2013-04-05 14:44:00,
2013-04-05 10:48:00,50.2,28.5,29.88,North,32767,-999.0,0.0,43,0.00,,,0.00,Wunderground v.1.15,2013-04-05 14:48:00,
2013-04-05 10:52:00,50.0,25.4,29.88,North,32767,-999.0,0.0,38,0.00,,,0.00,Wunderground v.1.15,2013-04-05 14:52:00,
2013-04-05 10:54:00,50.0,28.9,29.88,North,32767,-999.0,0.0,44,0.00,,,0.00,Wunderground v.1.15,2013-04-05 14:54:00,
2013-04-05 10:56:00,50.1,26.7,29.87,North,32767,-999.0,0.0,40,0.00,,,0.00,Wunderground v.1.15,2013-04-05 14:56:00,
2013-04-05 10:58:00,50.0,26.6,29.87,North,32767,-999.0,0.0,40,0.00,,,0.00,Wunderground v.1.15,2013-04-05 14:58:00,
2013-04-05 11:02:00,50.4,28.7,29.87,North,32767,-999.0,0.0,43,0.00,,,0.00,Wunderground v.1.15,2013-04-05 15:02:00,
2013-04-05 11:08:00,50.4,25.7,29.87,North,32767,-999.0,0.0,38,0.00,,,0.00,Wunderground v.1.15,2013-04-05 15:08:00,
2013-04-05 11:10:00,50.6,27.7,29.87,North,32767,-999.0,0.0,41,0.00,,,0.00,Wunderground v.1.15,2013-04-05 15:10:00,
2013-04-05 11:14:00,51.7,29.3,29.87,North,32767,-999.0,0.0,42,0.00,,,0.00,Wunderground v.1.15,2013-04-05 15:14:00,
2013-04-05 11:16:00,52.3,29.3,29.87,North,32767,-999.0,0.0,41,0.00,,,0.00,Wunderground v.1.15,2013-04-05 15:16:00,
2013-04-05 11:18:00,52.9,28.6,29.87,North,32767,-999.0,0.0,39,0.00,,,0.00,Wunderground v.1.15,2013-04-05 15:18:00,
2013-04-05 11:20:00,53.1,28.1,29.87,North,32767,-999.0,0.0,38,0.00,,,0.00,Wunderground v.1.15,2013-04-05 15:20:00,
2013-04-05 11:24:00,53.5,29.1,29.87,North,32767,-999.0,0.0,39,0.00,,,0.00,Wunderground v.1.15,2013-04-05 15:24:00,
2013-04-05 11:26:00,54.1,30.3,29.87,NNW,344,4.0,4.0,40,0.00,,,0.00,Wunderground v.1.15,2013-04-05 15:26:00,
2013-04-05 11:30:00,54.5,26.7,29.86,NW,304,5.0,5.0,34,0.00,,,0.00,Wunderground v.1.15,2013-04-05 15:30:00,
2013-04-05 11:32:00,54.5,28.1,29.86,NNW,344,4.0,5.0,36,0.00,,,0.00,Wunderground v.1.15,2013-04-05 15:32:00,
2013-04-05 11:34:00,54.6,27.5,29.86,WNW,288,4.0,5.0,35,0.00,,,0.00,Wunderground v.1.15,2013-04-05 15:34:00,
2013-04-05 11:38:00,54.2,25.7,29.86,WNW,291,4.0,6.0,33,0.00,,,0.00,Wunderground v.1.15,2013-04-05 15:38:00,
2013-04-05 11:42:00,54.8,27.6,29.86,North,5,4.0,9.0,35,0.00,,,0.00,Wunderground v.1.15,2013-04-05 15:42:00,
2013-04-05 11:44:00,55.1,27.2,29.86,NNW,346,4.0,9.0,34,0.00,,,0.00,Wunderground v.1.15,2013-04-05 15:44:00,
2013-04-05 11:48:00,55.2,26.6,29.85,North,355,4.0,9.0,33,0.00,,,0.00,Wunderground v.1.15,2013-04-05 15:48:00,
2013-04-05 11:50:00,55.3,28.1,29.85,NW,314,3.0,3.0,35,0.00,,,0.00,Wunderground v.1.15,2013-04-05 15:50:00,
2013-04-05 11:54:00,56.1,27.4,29.85,NW,316,2.0,3.0,33,0.00,,,0.00,Wunderground v.1.15,2013-04-05 15:54:00,
2013-04-05 11:56:00,56.2,26.7,29.84,NW,313,2.0,3.0,32,0.00,,,0.00,Wunderground v.1.15,2013-04-05 15:56:00,
2013-04-05 11:58:00,56.5,27.7,29.84,NW,310,2.0,5.0,33,0.00,,,0.00,Wunderground v.1.15,2013-04-05 15:58:00,
2013-04-05 12:02:00,56.6,27.0,29.84,NNW,346,3.0,5.0,32,0.00,,,0.00,Wunderground v.1.15,2013-04-05 16:02:00,
2013-04-05 12:04:00,57.3,29.9,29.84,North,360,3.0,7.0,35,0.00,,,0.00,Wunderground v.1.15,2013-04-05 16:04:00,
2013-04-05 12:08:00,56.9,27.3,29.84,North,5,5.0,10.0,32,0.00,,,0.00,Wunderground v.1.15,2013-04-05 16:08:00,
2013-04-05 12:10:00,57.1,26.7,29.84,North,355,5.0,6.0,31,0.00,,,0.00,Wunderground v.1.15,2013-04-05 16:10:00,
2013-04-05 12:16:00,57.4,28.5,29.83,NNW,334,5.0,7.0,33,0.00,,,0.00,Wunderground v.1.15,2013-04-05 16:16:00,
2013-04-05 12:18:00,57.5,27.1,29.83,NNW,347,5.0,7.0,31,0.00,,,0.00,Wunderground v.1.15,2013-04-05 16:18:00,
2013-04-05 12:24:00,57.7,27.2,29.83,NNW,327,4.0,6.0,31,0.00,,,0.00,Wunderground v.1.15,2013-04-05 16:24:00,
2013-04-05 12:26:00,57.9,25.8,29.83,NW,317,4.0,6.0,29,0.00,,,0.00,Wunderground v.1.15,2013-04-05 16:26:00,
2013-04-05 12:28:00,57.7,25.6,29.83,North,360,5.0,6.0,29,0.00,,,0.00,Wunderground v.1.15,2013-04-05 16:28:00,
2013-04-05 12:30:00,57.6,26.4,29.82,NW,321,5.0,5.0,30,0.00,,,0.00,Wunderground v.1.15,2013-04-05 16:30:00,
2013-04-05 12:34:00,58.0,28.3,29.82,North,355,5.0,7.0,32,0.00,,,0.00,Wunderground v.1.15,2013-04-05 16:34:00,
2013-04-05 12:36:00,58.1,26.8,29.82,NW,311,5.0,7.0,30,0.00,,,0.00,Wunderground v.1.15,2013-04-05 16:36:00,
2013-04-05 12:38:00,58.2,28.5,29.82,WNW,301,5.0,7.0,32,0.00,,,0.00,Wunderground v.1.15,2013-04-05 16:38:00,
2013-04-05 12:40:00,58.3,27.8,29.82,North,5,6.0,9.0,31,0.00,,,0.00,Wunderground v.1.15,2013-04-05 16:40:00,
2013-04-05 12:44:00,58.4,27.9,29.82,North,360,6.0,9.0,31,0.00,,,0.00,Wunderground v.1.15,2013-04-05 16:44:00,
2013-04-05 12:46:00,58.8,28.2,29.82,NNW,328,6.0,9.0,31,0.00,,,0.00,Wunderground v.1.15,2013-04-05 16:46:00,
2013-04-05 12:48:00,58.6,26.4,29.82,North,5,5.0,9.0,29,0.00,,,0.00,Wunderground v.1.15,2013-04-05 16:48:00,
2013-04-05 12:50:00,58.9,29.8,29.81,West,274,5.0,5.0,33,0.00,,,0.00,Wunderground v.1.15,2013-04-05 16:50:00,
2013-04-05 12:52:00,59.0,28.4,29.81,WNW,303,5.0,13.0,31,0.00,,,0.00,Wunderground v.1.15,2013-04-05 16:52:00,
2013-04-05 12:54:00,59.0,27.6,29.81,NNW,344,6.0,13.0,30,0.00,,,0.00,Wunderground v.1.15,2013-04-05 16:54:00,
2013-04-05 12:56:00,59.0,27.6,29.81,North,355,6.0,13.0,30,0.00,,,0.00,Wunderground v.1.15,2013-04-05 16:56:00,
2013-04-05 12:58:00,59.0,28.4,29.81,NNW,331,6.0,13.0,31,0.00,,,0.00,Wunderground v.1.15,2013-04-05 16:58:00,
2013-04-05 13:00:00,59.1,27.7,29.80,NNE,15,6.0,6.0,30,0.00,,,0.00,Wunderground v.1.15,2013-04-05 17:00:00,
2013-04-05 13:06:00,59.0,27.6,29.80,West,278,4.0,6.0,30,0.00,,,0.00,Wunderground v.1.15,2013-04-05 17:06:00,
2013-04-05 13:12:00,59.1,29.2,29.80,North,349,5.0,7.0,32,0.00,,,0.00,Wunderground v.1.15,2013-04-05 17:12:00,
2013-04-05 13:16:00,59.6,32.6,29.80,NNW,339,6.0,7.0,36,0.00,,,0.00,Wunderground v.1.15,2013-04-05 17:16:00,
2013-04-05 13:18:00,60.0,29.2,29.79,NNW,338,6.0,7.0,31,0.00,,,0.00,Wunderground v.1.15,2013-04-05 17:18:00,
2013-04-05 13:28:00,60.1,30.9,29.78,North,355,5.0,11.0,33,0.00,,,0.00,Wunderground v.1.15,2013-04-05 17:28:00,
2013-04-05 13:30:00,60.4,31.1,29.79,NNW,342,6.0,9.0,33,0.00,,,0.00,Wunderground v.1.15,2013-04-05 17:30:00,
2013-04-05 13:34:00,60.1,31.6,29.78,NNW,347,7.0,12.0,34,0.00,,,0.00,Wunderground v.1.15,2013-04-05 17:34:00,
2013-04-05 13:36:00,60.0,30.8,29.78,NNW,348,7.0,12.0,33,0.00,,,0.00,Wunderground v.1.15,2013-04-05 17:36:00,
2013-04-05 13:38:00,59.6,31.2,29.79,WSW,243,8.0,12.0,34,0.00,,,0.00,Wunderground v.1.15,2013-04-05 17:38:00,
2013-04-05 13:42:00,59.0,32.1,29.78,West,267,8.0,8.0,36,0.00,,,0.00,Wunderground v.1.15,2013-04-05 17:42:00,
2013-04-05 13:44:00,59.2,30.8,29.78,North,5,8.0,10.0,34,0.00,,,0.00,Wunderground v.1.15,2013-04-05 17:44:00,
2013-04-05 13:46:00,59.6,31.2,29.78,West,261,7.0,10.0,34,0.00,,,0.00,Wunderground v.1.15,2013-04-05 17:46:00,
2013-04-05 13:52:00,59.8,32.8,29.78,NW,315,7.0,7.0,36,0.00,,,0.00,Wunderground v.1.15,2013-04-05 17:52:00,
2013-04-05 13:54:00,59.6,31.9,29.77,NNW,346,6.0,7.0,35,0.00,,,0.00,Wunderground v.1.15,2013-04-05 17:54:00,
2013-04-05 13:58:00,60.1,32.3,29.78,NNW,329,6.0,7.0,35,0.00,,,0.00,Wunderground v.1.15,2013-04-05 17:58:00,
2013-04-05 14:00:00,60.2,32.4,29.78,North,351,6.0,6.0,35,0.00,,,0.00,Wunderground v.1.15,2013-04-05 18:00:00,
2013-04-05 14:04:00,60.1,31.6,29.78,NNW,340,4.0,6.0,34,0.00,,,0.00,Wunderground v.1.15,2013-04-05 18:04:00,
2013-04-05 14:06:00,60.2,33.8,29.78,NNW,340,4.0,7.0,37,0.00,,,0.00,Wunderground v.1.15,2013-04-05 18:06:00,
2013-04-05 14:08:00,60.6,33.5,29.78,NNE,27,5.0,9.0,36,0.00,,,0.00,Wunderground v.1.15,2013-04-05 18:08:00,
2013-04-05 14:12:00,59.8,32.8,29.78,NNW,346,6.0,10.0,36,0.00,,,0.00,Wunderground v.1.15,2013-04-05 18:12:00,
2013-04-05 14:18:00,59.0,31.4,29.78,WNW,286,9.0,10.0,35,0.00,,,0.00,Wunderground v.1.15,2013-04-05 18:18:00,
2013-04-05 14:20:00,59.0,33.4,29.78,NW,309,8.0,8.0,38,0.00,,,0.00,Wunderground v.1.15,2013-04-05 18:20:00,
2013-04-05 14:22:00,59.0,30.6,29.78,WNW,284,8.0,12.0,34,0.00,,,0.00,Wunderground v.1.15,2013-04-05 18:22:00,
2013-04-05 14:26:00,58.6,32.4,29.78,WNW,282,7.0,12.0,37,0.00,,,0.00,Wunderground v.1.15,2013-04-05 18:26:00,
2013-04-05 14:28:00,58.6,31.0,29.78,WSW,252,7.0,12.0,35,0.00,,,0.00,Wunderground v.1.15,2013-04-05 18:28:00,
2013-04-05 14:38:00,58.7,33.1,29.78,NNW,348,8.0,8.0,38,0.00,,,0.00,Wunderground v.1.15,2013-04-05 18:38:00,
2013-04-05 14:40:00,58.7,31.8,29.78,NNW,332,8.0,8.0,36,0.00,,,0.00,Wunderground v.1.15,2013-04-05 18:40:00,
2013-04-05 14:42:00,58.8,31.9,29.78,NNW,347,8.0,11.0,36,0.00,,,0.00,Wunderground v.1.15,2013-04-05 18:42:00,
2013-04-05 14:48:00,58.1,29.8,29.79,NW,324,10.0,11.0,34,0.00,,,0.00,Wunderground v.1.15,2013-04-05 18:48:00,
2013-04-05 14:50:00,58.2,30.7,29.79,NNW,337,9.0,9.0,35,0.00,,,0.00,Wunderground v.1.15,2013-04-05 18:50:00,
2013-04-05 14:52:00,58.2,30.7,29.79,NNW,337,9.0,9.0,35,0.00,,,0.00,Wunderground v.1.15,2013-04-05 18:52:00,
2013-04-05 14:58:00,58.8,32.6,29.78,West,263,5.0,9.0,37,0.00,,,0.00,Wunderground v.1.15,2013-04-05 18:58:00,
2013-04-05 15:00:00,58.6,31.7,29.78,NNW,340,5.0,5.0,36,0.00,,,0.00,Wunderground v.1.15,2013-04-05 19:00:00,
2013-04-05 15:02:00,58.7,31.1,29.78,North,355,4.0,5.0,35,0.00,,,0.00,Wunderground v.1.15,2013-04-05 19:02:00,
2013-04-05 15:04:00,59.0,32.1,29.78,NNW,327,5.0,11.0,36,0.00,,,0.00,Wunderground v.1.15,2013-04-05 19:04:00,
2013-04-05 15:08:00,59.0,31.4,29.78,NNW,342,6.0,11.0,35,0.00,,,0.00,Wunderground v.1.15,2013-04-05 19:08:00,
2013-04-05 15:10:00,59.0,30.6,29.78,NW,321,7.0,7.0,34,0.00,,,0.00,Wunderground v.1.15,2013-04-05 19:10:00,
2013-04-05 15:12:00,58.5,31.6,29.79,WSW,245,7.0,14.0,36,0.00,,,0.00,Wunderground v.1.15,2013-04-05 19:12:00,
2013-04-05 15:14:00,58.5,30.9,29.78,NW,323,6.0,14.0,35,0.00,,,0.00,Wunderground v.1.15,2013-04-05 19:14:00,
2013-04-05 15:18:00,58.3,29.3,29.79,North,355,7.0,14.0,33,0.00,,,0.00,Wunderground v.1.15,2013-04-05 19:18:00,
2013-04-05 15:20:00,58.1,30.6,29.79,NW,309,7.0,7.0,35,0.00,,,0.00,Wunderground v.1.15,2013-04-05 19:20:00,
2013-04-05 15:26:00,57.7,30.9,29.79,NW,309,7.0,11.0,36,0.00,,,0.00,Wunderground v.1.15,2013-04-05 19:26:00,
2013-04-05 15:28:00,57.7,30.2,29.78,WSW,250,7.0,11.0,35,0.00,,,0.00,Wunderground v.1.15,2013-04-05 19:28:00,
2013-04-05 15:32:00,58.0,31.8,29.78,NW,306,6.0,6.0,37,0.00,,,0.00,Wunderground v.1.15,2013-04-05 19:32:00,
2013-04-05 15:34:00,58.0,30.5,29.78,WNW,283,7.0,7.0,35,0.00,,,0.00,Wunderground v.1.15,2013-04-05 19:34:00,
2013-04-05 15:36:00,58.1,30.6,29.78,NW,319,7.0,13.0,35,0.00,,,0.00,Wunderground v.1.15,2013-04-05 19:36:00,
2013-04-05 15:38:00,58.0,30.5,29.78,North,11,7.0,13.0,35,0.00,,,0.00,Wunderground v.1.15,2013-04-05 19:38:00,
2013-04-05 15:44:00,57.8,30.3,29.79,North,5,7.0,18.0,35,0.00,,,0.00,Wunderground v.1.15,2013-04-05 19:44:00,
2013-04-05 15:46:00,57.5,29.3,29.78,North,351,7.0,18.0,34,0.00,,,0.00,Wunderground v.1.15,2013-04-05 19:46:00,
2013-04-05 15:52:00,57.0,28.9,29.79,North,360,8.0,8.0,34,0.00,,,0.00,Wunderground v.1.15,2013-04-05 19:52:00,
2013-04-05 15:54:00,56.9,28.8,29.79,West,281,9.0,14.0,34,0.00,,,0.00,Wunderground v.1.15,2013-04-05 19:54:00,
2013-04-05 16:00:00,56.9,28.1,29.79,NW,322,7.0,7.0,33,0.00,,,0.00,Wunderground v.1.15,2013-04-05 20:00:00,
2013-04-05 16:02:00,56.7,27.1,29.79,NW,304,8.0,9.0,32,0.00,,,0.00,Wunderground v.1.15,2013-04-05 20:02:00,
2013-04-05 16:08:00,56.3,29.0,29.79,NNW,327,7.0,9.0,35,0.00,,,0.00,Wunderground v.1.15,2013-04-05 20:08:00,
2013-04-05 16:10:00,56.5,29.1,29.79,West,280,6.0,6.0,35,0.00,,,0.00,Wunderground v.1.15,2013-04-05 20:10:00,
2013-04-05 16:14:00,56.6,28.5,29.79,NNW,348,5.0,6.0,34,0.00,,,0.00,Wunderground v.1.15,2013-04-05 20:14:00,
2013-04-05 16:18:00,56.4,26.9,29.79,WNW,294,6.0,9.0,32,0.00,,,0.00,Wunderground v.1.15,2013-04-05 20:18:00,
2013-04-05 16:22:00,56.4,28.3,29.79,NNW,340,8.0,10.0,34,0.00,,,0.00,Wunderground v.1.15,2013-04-05 20:22:00,
2013-04-05 16:24:00,56.4,28.3,29.79,North,355,7.0,11.0,34,0.00,,,0.00,Wunderground v.1.15,2013-04-05 20:24:00,
2013-04-05 16:28:00,56.4,28.3,29.79,NNW,331,8.0,11.0,34,0.00,,,0.00,Wunderground v.1.15,2013-04-05 20:28:00,
2013-04-05 16:30:00,56.3,26.8,29.79,NW,321,8.0,8.0,32,0.00,,,0.00,Wunderground v.1.15,2013-04-05 20:30:00,
2013-04-05 16:36:00,56.1,28.1,29.79,NNW,340,7.0,12.0,34,0.00,,,0.00,Wunderground v.1.15,2013-04-05 20:36:00,
2013-04-05 16:38:00,55.9,27.2,29.79,NNW,340,6.0,12.0,33,0.00,,,0.00,Wunderground v.1.15,2013-04-05 20:38:00,
2013-04-05 16:44:00,56.3,26.8,29.79,West,265,5.0,10.0,32,0.00,,,0.00,Wunderground v.1.15,2013-04-05 20:44:00,
2013-04-05 16:48:00,56.2,28.2,29.79,WSW,247,5.0,13.0,34,0.00,,,0.00,Wunderground v.1.15,2013-04-05 20:48:00,
2013-04-05 16:54:00,55.8,26.3,29.80,West,275,6.0,11.0,32,0.00,,,0.00,Wunderground v.1.15,2013-04-05 20:54:00,
2013-04-05 16:56:00,55.7,27.0,29.80,WSW,254,6.0,11.0,33,0.00,,,0.00,Wunderground v.1.15,2013-04-05 20:56:00,
2013-04-05 17:00:00,55.5,26.8,29.79,West,281,6.0,6.0,33,0.00,,,0.00,Wunderground v.1.15,2013-04-05 21:00:00,
2013-04-05 17:02:00,55.5,28.3,29.79,West,274,6.0,8.0,35,0.00,,,0.00,Wunderground v.1.15,2013-04-05 21:02:00,
2013-04-05 17:06:00,55.7,29.1,29.80,North,351,5.0,8.0,36,0.00,,,0.00,Wunderground v.1.15,2013-04-05 21:06:00,
2013-04-05 17:10:00,55.6,27.6,29.80,NNW,330,4.0,4.0,34,0.00,,,0.00,Wunderground v.1.15,2013-04-05 21:10:00,
2013-04-05 17:12:00,55.2,27.3,29.80,WNW,302,5.0,14.0,34,0.00,,,0.00,Wunderground v.1.15,2013-04-05 21:12:00,
2013-04-05 17:16:00,55.1,27.2,29.80,WNW,293,5.0,14.0,34,0.00,,,0.00,Wunderground v.1.15,2013-04-05 21:16:00,
2013-04-05 17:18:00,55.1,27.2,29.80,NNW,333,5.0,14.0,34,0.00,,,0.00,Wunderground v.1.15,2013-04-05 21:18:00,
2013-04-05 17:22:00,55.0,26.4,29.80,NNE,16,6.0,6.0,33,0.00,,,0.00,Wunderground v.1.15,2013-04-05 21:22:00,
2013-04-05 17:24:00,55.0,26.4,29.81,NW,313,5.0,7.0,33,0.00,,,0.00,Wunderground v.1.15,2013-04-05 21:24:00,
2013-04-05 17:28:00,54.9,25.6,29.81,NW,325,6.0,7.0,32,0.00,,,0.00,Wunderground v.1.15,2013-04-05 21:28:00,
2013-04-05 17:30:00,54.7,26.1,29.81,WSW,250,6.0,7.0,33,0.00,,,0.00,Wunderground v.1.15,2013-04-05 21:30:00,
2013-04-05 17:34:00,54.6,26.8,29.81,North,350,5.0,7.0,34,0.00,,,0.00,Wunderground v.1.15,2013-04-05 21:34:00,
2013-04-05 17:36:00,54.6,26.0,29.81,North,360,4.0,10.0,33,0.00,,,0.00,Wunderground v.1.15,2013-04-05 21:36:00,
2013-04-05 17:38:00,54.6,26.0,29.81,NNW,329,4.0,10.0,33,0.00,,,0.00,Wunderground v.1.15,2013-04-05 21:38:00,
2013-04-05 17:42:00,54.5,26.0,29.81,North,355,5.0,5.0,33,0.00,,,0.00,Wunderground v.1.15,2013-04-05 21:42:00,
2013-04-05 17:44:00,54.4,25.9,29.81,NNW,345,6.0,6.0,33,0.00,,,0.00,Wunderground v.1.15,2013-04-05 21:44:00,
2013-04-05 17:48:00,54.4,25.1,29.82,NNW,346,4.0,6.0,32,0.00,,,0.00,Wunderground v.1.15,2013-04-05 21:48:00,
2013-04-05 17:50:00,54.5,26.0,29.82,NW,325,4.0,5.0,33,0.00,,,0.00,Wunderground v.1.15,2013-04-05 21:50:00,
2013-04-05 17:52:00,54.5,26.0,29.82,North,355,4.0,5.0,33,0.00,,,0.00,Wunderground v.1.15,2013-04-05 21:52:00,
2013-04-05 17:56:00,54.4,25.9,29.82,NW,326,4.0,10.0,33,0.00,,,0.00,Wunderground v.1.15,2013-04-05 21:56:00,
2013-04-05 17:58:00,54.2,26.4,29.83,North,355,6.0,10.0,34,0.00,,,0.00,Wunderground v.1.15,2013-04-05 21:58:00,
2013-04-05 18:00:00,54.1,25.6,29.83,NNW,337,7.0,12.0,33,0.00,,,0.00,Wunderground v.1.15,2013-04-05 22:00:00,
2013-04-05 18:04:00,53.9,25.4,29.83,NNW,343,8.0,12.0,33,0.00,,,0.00,Wunderground v.1.15,2013-04-05 22:04:00,
2013-04-05 18:08:00,53.7,26.0,29.83,NNW,347,8.0,12.0,34,0.00,,,0.00,Wunderground v.1.15,2013-04-05 22:08:00,
2013-04-05 18:10:00,53.5,25.8,29.83,NNW,339,8.0,8.0,34,0.00,,,0.00,Wunderground v.1.15,2013-04-05 22:10:00,
2013-04-05 18:14:00,53.3,26.3,29.84,West,281,7.0,8.0,35,0.00,,,0.00,Wunderground v.1.15,2013-04-05 22:14:00,
2013-04-05 18:16:00,53.3,25.6,29.84,WNW,301,7.0,8.0,34,0.00,,,0.00,Wunderground v.1.15,2013-04-05 22:16:00,
2013-04-05 18:22:00,53.0,26.0,29.84,NNW,346,6.0,7.0,35,0.00,,,0.00,Wunderground v.1.15,2013-04-05 22:22:00,
2013-04-05 18:24:00,52.9,26.6,29.85,NNW,343,6.0,9.0,36,0.00,,,0.00,Wunderground v.1.15,2013-04-05 22:24:00,
2013-04-05 18:28:00,52.7,27.1,29.85,North,355,6.0,9.0,37,0.00,,,0.00,Wunderground v.1.15,2013-04-05 22:28:00,
2013-04-05 18:30:00,52.6,27.7,29.85,NNW,335,5.0,9.0,38,0.00,,,0.00,Wunderground v.1.15,2013-04-05 22:30:00,
2013-04-05 18:34:00,52.3,27.4,29.85,NNE,24,6.0,9.0,38,0.00,,,0.00,Wunderground v.1.15,2013-04-05 22:34:00,
2013-04-05 18:36:00,52.3,27.4,29.86,NNW,336,6.0,9.0,38,0.00,,,0.00,Wunderground v.1.15,2013-04-05 22:36:00,
2013-04-05 18:40:00,52.0,27.1,29.86,NW,305,6.0,8.0,38,0.00,,,0.00,Wunderground v.1.15,2013-04-05 22:40:00,
2013-04-05 18:42:00,51.9,26.4,29.86,NW,322,5.0,8.0,37,0.00,,,0.00,Wunderground v.1.15,2013-04-05 22:42:00,
2013-04-05 18:44:00,51.8,27.6,29.86,NNW,344,5.0,10.0,39,0.00,,,0.00,Wunderground v.1.15,2013-04-05 22:44:00,
2013-04-05 18:50:00,51.4,26.6,29.86,NNW,344,6.0,6.0,38,0.00,,,0.00,Wunderground v.1.15,2013-04-05 22:50:00,
2013-04-05 18:56:00,51.0,26.3,29.86,NNW,347,6.0,10.0,38,0.00,,,0.00,Wunderground v.1.15,2013-04-05 22:56:00,
2013-04-05 18:58:00,50.9,26.2,29.86,NW,323,6.0,10.0,38,0.00,,,0.00,Wunderground v.1.15,2013-04-05 22:58:00,
2013-04-05 19:02:00,50.8,26.1,29.87,NNW,348,5.0,11.0,38,0.00,,,0.00,Wunderground v.1.15,2013-04-05 23:02:00,
2013-04-05 19:06:00,50.6,26.5,29.87,North,350,5.0,11.0,39,0.00,,,0.00,Wunderground v.1.15,2013-04-05 23:06:00,
2013-04-05 19:08:00,50.5,26.4,29.87,NNW,332,6.0,11.0,39,0.00,,,0.00,Wunderground v.1.15,2013-04-05 23:08:00,
2013-04-05 19:12:00,50.3,26.9,29.87,NNW,347,6.0,11.0,40,0.00,,,0.00,Wunderground v.1.15,2013-04-05 23:12:00,
2013-04-05 19:14:00,50.1,26.7,29.87,NNW,341,6.0,11.0,40,0.00,,,0.00,Wunderground v.1.15,2013-04-05 23:14:00,
2013-04-05 19:16:00,50.0,26.6,29.88,NNW,346,6.0,11.0,40,0.00,,,0.00,Wunderground v.1.15,2013-04-05 23:16:00,
2013-04-05 19:20:00,49.7,26.9,29.88,NNW,339,6.0,6.0,41,0.00,,,0.00,Wunderground v.1.15,2013-04-05 23:20:00,
2013-04-05 19:22:00,49.6,27.4,29.88,NNW,346,5.0,6.0,42,0.00,,,0.00,Wunderground v.1.15,2013-04-05 23:22:00,
2013-04-05 19:24:00,49.3,27.2,29.88,NNW,342,5.0,10.0,42,0.00,,,0.00,Wunderground v.1.15,2013-04-05 23:24:00,
2013-04-05 19:30:00,48.8,26.7,29.88,NNE,26,5.0,5.0,42,0.00,,,0.00,Wunderground v.1.15,2013-04-05 23:30:00,
2013-04-05 19:32:00,48.7,26.6,29.88,NNW,344,5.0,5.0,42,0.00,,,0.00,Wunderground v.1.15,2013-04-05 23:32:00,
2013-04-05 19:34:00,48.5,27.0,29.89,NW,324,5.0,8.0,43,0.00,,,0.00,Wunderground v.1.15,2013-04-05 23:34:00,
2013-04-05 19:40:00,48.0,27.1,29.89,NNW,343,4.0,10.0,44,0.00,,,0.00,Wunderground v.1.15,2013-04-05 23:40:00,
2013-04-05 19:44:00,47.8,26.4,29.90,North,355,5.0,11.0,43,0.00,,,0.00,Wunderground v.1.15,2013-04-05 23:44:00,
2013-04-05 19:46:00,47.7,26.3,29.90,North,355,6.0,11.0,43,0.00,,,0.00,Wunderground v.1.15,2013-04-05 23:46:00,
2013-04-05 19:48:00,47.6,26.2,29.90,NNW,345,6.0,12.0,43,0.00,,,0.00,Wunderground v.1.15,2013-04-05 23:48:00,
2013-04-05 19:50:00,47.5,26.1,29.90,NNW,337,7.0,10.0,43,0.00,,,0.00,Wunderground v.1.15,2013-04-05 23:50:00,
2013-04-05 19:54:00,47.3,26.5,29.91,NNW,348,8.0,10.0,44,0.00,,,0.00,Wunderground v.1.15,2013-04-05 23:54:00,
2013-04-05 19:58:00,47.1,26.3,29.91,NNW,346,8.0,10.0,44,0.00,,,0.00,Wunderground v.1.15,2013-04-05 23:58:00,
2013-04-05 20:00:00,47.0,26.2,29.91,NNW,336,7.0,7.0,44,0.00,,,0.00,Wunderground v.1.15,2013-04-06 00:00:00,
2013-04-05 20:02:00,46.9,26.6,29.91,North,349,6.0,9.0,45,0.00,,,0.00,Wunderground v.1.15,2013-04-06 00:02:00,
2013-04-05 20:04:00,46.8,26.0,29.91,North,5,6.0,9.0,44,0.00,,,0.00,Wunderground v.1.15,2013-04-06 00:04:00,
2013-04-05 20:08:00,46.6,25.8,29.91,NNW,335,6.0,10.0,44,0.00,,,0.00,Wunderground v.1.15,2013-04-06 00:08:00,
2013-04-05 20:14:00,46.3,26.1,29.92,NNW,344,8.0,12.0,45,0.00,,,0.00,Wunderground v.1.15,2013-04-06 00:14:00,
2013-04-05 20:18:00,46.1,25.9,29.92,NW,308,8.0,12.0,45,0.00,,,0.00,Wunderground v.1.15,2013-04-06 00:18:00,
2013-04-05 20:20:00,46.1,25.9,29.92,NW,304,8.0,8.0,45,0.00,,,0.00,Wunderground v.1.15,2013-04-06 00:20:00,
2013-04-05 20:22:00,46.0,26.4,29.93,NNW,335,7.0,8.0,46,0.00,,,0.00,Wunderground v.1.15,2013-04-06 00:22:00,
2013-04-05 20:24:00,45.9,25.7,29.93,SW,232,6.0,8.0,45,0.00,,,0.00,Wunderground v.1.15,2013-04-06 00:24:00,
2013-04-05 20:28:00,45.6,25.5,29.93,NNW,328,5.0,13.0,45,0.00,,,0.00,Wunderground v.1.15,2013-04-06 00:28:00,
2013-04-05 20:30:00,45.6,26.0,29.94,NNW,331,6.0,7.0,46,0.00,,,0.00,Wunderground v.1.15,2013-04-06 00:30:00,
2013-04-05 20:32:00,45.5,25.9,29.93,NNW,331,6.0,10.0,46,0.00,,,0.00,Wunderground v.1.15,2013-04-06 00:32:00,
2013-04-05 20:34:00,45.4,26.3,29.94,North,351,7.0,10.0,47,0.00,,,0.00,Wunderground v.1.15,2013-04-06 00:34:00,
2013-04-05 20:36:00,45.2,26.1,29.94,North,5,7.0,10.0,47,0.00,,,0.00,Wunderground v.1.15,2013-04-06 00:36:00,
2013-04-05 20:38:00,45.0,26.0,29.94,NW,321,7.0,12.0,47,0.00,,,0.00,Wunderground v.1.15,2013-04-06 00:38:00,
2013-04-05 20:42:00,45.0,26.0,29.95,NNW,342,8.0,10.0,47,0.00,,,0.00,Wunderground v.1.15,2013-04-06 00:42:00,
2013-04-05 20:48:00,44.5,26.0,29.96,NNW,343,8.0,11.0,48,0.00,,,0.00,Wunderground v.1.15,2013-04-06 00:48:00,
2013-04-05 20:52:00,44.2,25.7,29.96,North,355,7.0,7.0,48,0.00,,,0.00,Wunderground v.1.15,2013-04-06 00:52:00,
2013-04-05 20:58:00,43.9,26.0,29.97,NW,323,7.0,13.0,49,0.00,,,0.00,Wunderground v.1.15,2013-04-06 00:58:00,
2013-04-05 21:00:00,43.8,26.3,29.97,NNW,347,8.0,11.0,50,0.00,,,0.00,Wunderground v.1.15,2013-04-06 01:00:00,
2013-04-05 21:04:00,43.6,26.2,29.97,North,360,7.0,11.0,50,0.00,,,0.00,Wunderground v.1.15,2013-04-06 01:04:00,
2013-04-05 21:06:00,43.5,26.1,29.97,NW,311,8.0,13.0,50,0.00,,,0.00,Wunderground v.1.15,2013-04-06 01:06:00,
2013-04-05 21:08:00,43.5,26.1,29.98,NNW,333,8.0,13.0,50,0.00,,,0.00,Wunderground v.1.15,2013-04-06 01:08:00,
2013-04-05 21:12:00,43.3,25.9,29.98,NW,304,7.0,12.0,50,0.00,,,0.00,Wunderground v.1.15,2013-04-06 01:12:00,
2013-04-05 21:14:00,43.2,26.3,29.98,NNW,339,8.0,12.0,51,0.00,,,0.00,Wunderground v.1.15,2013-04-06 01:14:00,
2013-04-05 21:16:00,43.0,26.1,29.98,North,355,8.0,12.0,51,0.00,,,0.00,Wunderground v.1.15,2013-04-06 01:16:00,
2013-04-05 21:18:00,42.8,25.9,29.98,NNW,331,8.0,12.0,51,0.00,,,0.00,Wunderground v.1.15,2013-04-06 01:18:00,
2013-04-05 21:20:00,42.7,25.8,29.99,NNW,337,8.0,8.0,51,0.00,,,0.00,Wunderground v.1.15,2013-04-06 01:20:00,
2013-04-05 21:26:00,42.3,25.9,29.99,NNW,343,6.0,9.0,52,0.00,,,0.00,Wunderground v.1.15,2013-04-06 01:26:00,
2013-04-05 21:28:00,42.2,25.8,30.00,North,355,6.0,9.0,52,0.00,,,0.00,Wunderground v.1.15,2013-04-06 01:28:00,
2013-04-05 21:32:00,41.9,26.0,30.00,North,349,4.0,9.0,53,0.00,,,0.00,Wunderground v.1.15,2013-04-06 01:32:00,
2013-04-05 21:36:00,41.6,25.7,30.00,NNW,345,4.0,9.0,53,0.00,,,0.00,Wunderground v.1.15,2013-04-06 01:36:00,
2013-04-05 21:38:00,41.6,25.3,30.00,North,360,4.0,9.0,52,0.00,,,0.00,Wunderground v.1.15,2013-04-06 01:38:00,
2013-04-05 21:42:00,41.3,25.4,30.00,North,360,4.0,4.0,53,0.00,,,0.00,Wunderground v.1.15,2013-04-06 01:42:00,
2013-04-05 21:44:00,41.2,25.3,30.01,NNW,338,4.0,4.0,53,0.00,,,0.00,Wunderground v.1.15,2013-04-06 01:44:00,
2013-04-05 21:48:00,40.9,25.1,30.01,North,355,3.0,9.0,53,0.00,,,0.00,Wunderground v.1.15,2013-04-06 01:48:00,
2013-04-05 21:50:00,40.8,25.0,30.01,North,349,3.0,3.0,53,0.00,,,0.00,Wunderground v.1.15,2013-04-06 01:50:00,
2013-04-05 21:54:00,40.7,24.9,30.01,NW,305,4.0,7.0,53,0.00,,,0.00,Wunderground v.1.15,2013-04-06 01:54:00,
2013-04-05 21:56:00,40.6,24.8,30.01,NNW,327,3.0,7.0,53,0.00,,,0.00,Wunderground v.1.15,2013-04-06 01:56:00,
2013-04-05 21:58:00,40.3,24.5,30.01,NNW,336,2.0,7.0,53,0.00,,,0.00,Wunderground v.1.15,2013-04-06 01:58:00,
2013-04-05 22:02:00,40.1,24.3,30.01,NNW,329,2.0,8.0,53,0.00,,,0.00,Wunderground v.1.15,2013-04-06 02:02:00,
2013-04-05 22:04:00,40.0,23.8,30.01,North,355,1.0,8.0,52,0.00,,,0.00,Wunderground v.1.15,2013-04-06 02:04:00,
2013-04-05 22:08:00,39.6,23.9,30.01,North,5,2.0,8.0,53,0.00,,,0.00,Wunderground v.1.15,2013-04-06 02:08:00,
2013-04-05 22:10:00,39.5,23.8,30.01,NNW,346,1.0,1.0,53,0.00,,,0.00,Wunderground v.1.15,2013-04-06 02:10:00,
2013-04-05 22:12:00,39.5,23.8,30.01,NNE,24,2.0,4.0,53,0.00,,,0.00,Wunderground v.1.15,2013-04-06 02:12:00,
2013-04-05 22:14:00,39.4,23.7,30.02,North,5,2.0,6.0,53,0.00,,,0.00,Wunderground v.1.15,2013-04-06 02:14:00,
2013-04-05 22:18:00,39.3,23.6,30.02,NNW,342,2.0,6.0,53,0.00,,,0.00,Wunderground v.1.15,2013-04-06 02:18:00,
2013-04-05 22:20:00,39.1,23.4,30.02,NNW,342,2.0,2.0,53,0.00,,,0.00,Wunderground v.1.15,2013-04-06 02:20:00,
2013-04-05 22:26:00,38.5,22.8,30.02,North,5,1.0,6.0,53,0.00,,,0.00,Wunderground v.1.15,2013-04-06 02:26:00,
2013-04-05 22:28:00,38.4,22.7,30.02,North,355,1.0,6.0,53,0.00,,,0.00,Wunderground v.1.15,2013-04-06 02:28:00,
2013-04-05 22:30:00,38.3,23.1,30.02,NNW,340,1.0,1.0,54,0.00,,,0.00,Wunderground v.1.15,2013-04-06 02:30:00,
2013-04-05 22:36:00,38.0,22.8,30.03,North,5,1.0,4.0,54,0.00,,,0.00,Wunderground v.1.15,2013-04-06 02:36:00,
2013-04-05 22:38:00,37.9,22.7,30.03,North,360,1.0,4.0,54,0.00,,,0.00,Wunderground v.1.15,2013-04-06 02:38:00,
2013-04-05 22:42:00,37.8,22.6,30.03,North,360,1.0,1.0,54,0.00,,,0.00,Wunderground v.1.15,2013-04-06 02:42:00,
2013-04-05 22:46:00,37.7,23.0,30.03,NNW,346,1.0,12.0,55,0.00,,,0.00,Wunderground v.1.15,2013-04-06 02:46:00,
2013-04-05 22:48:00,37.9,22.7,30.03,NNW,342,2.0,12.0,54,0.00,,,0.00,Wunderground v.1.15,2013-04-06 02:48:00,
2013-04-05 22:52:00,38.1,22.9,30.03,NNW,348,3.0,12.0,54,0.00,,,0.00,Wunderground v.1.15,2013-04-06 02:52:00,
2013-04-05 22:54:00,38.2,22.6,30.03,North,350,3.0,12.0,53,0.00,,,0.00,Wunderground v.1.15,2013-04-06 02:54:00,
2013-04-05 23:00:00,37.8,22.6,30.02,North,355,1.0,1.0,54,0.00,,,0.00,Wunderground v.1.15,2013-04-06 03:00:00,
2013-04-05 23:04:00,37.8,22.6,30.03,North,355,1.0,2.0,54,0.00,,,0.00,Wunderground v.1.15,2013-04-06 03:04:00,
2013-04-05 23:06:00,37.7,22.5,30.03,North,355,1.0,2.0,54,0.00,,,0.00,Wunderground v.1.15,2013-04-06 03:06:00,
2013-04-05 23:10:00,37.7,22.5,30.03,North,355,2.0,2.0,54,0.00,,,0.00,Wunderground v.1.15,2013-04-06 03:10:00,
2013-04-05 23:12:00,37.5,22.8,30.02,North,355,1.0,2.0,55,0.00,,,0.00,Wunderground v.1.15,2013-04-06 03:12:00,
2013-04-05 23:16:00,37.2,22.5,30.03,West,274,1.0,2.0,55,0.00,,,0.00,Wunderground v.1.15,2013-04-06 03:16:00,
2013-04-05 23:18:00,37.2,22.5,30.03,North,350,1.0,4.0,55,0.00,,,0.00,Wunderground v.1.15,2013-04-06 03:18:00,
2013-04-05 23:22:00,37.4,22.7,30.03,North,355,2.0,4.0,55,0.00,,,0.00,Wunderground v.1.15,2013-04-06 03:22:00,
2013-04-05 23:24:00,37.4,22.7,30.03,North,355,2.0,4.0,55,0.00,,,0.00,Wunderground v.1.15,2013-04-06 03:24:00,
2013-04-05 23:26:00,37.2,22.5,30.04,North,355,2.0,5.0,55,0.00,,,0.00,Wunderground v.1.15,2013-04-06 03:26:00,
2013-04-05 23:28:00,36.9,22.2,30.04,North,5,2.0,5.0,55,0.00,,,0.00,Wunderground v.1.15,2013-04-06 03:28:00,
2013-04-05 23:32:00,37.0,22.3,30.04,NNW,331,2.0,2.0,55,0.00,,,0.00,Wunderground v.1.15,2013-04-06 03:32:00,
2013-04-05 23:34:00,37.1,22.4,30.04,North,360,2.0,2.0,55,0.00,,,0.00,Wunderground v.1.15,2013-04-06 03:34:00,
2013-04-05 23:36:00,37.1,22.4,30.04,WNW,288,2.0,4.0,55,0.00,,,0.00,Wunderground v.1.15,2013-04-06 03:36:00,
2013-04-05 23:40:00,37.2,22.5,30.04,North,350,2.0,2.0,55,0.00,,,0.00,Wunderground v.1.15,2013-04-06 03:40:00,
2013-04-05 23:44:00,37.1,22.4,30.04,North,350,1.0,2.0,55,0.00,,,0.00,Wunderground v.1.15,2013-04-06 03:44:00,
2013-04-05 23:48:00,36.8,22.6,30.04,WNW,290,1.0,2.0,56,0.00,,,0.00,Wunderground v.1.15,2013-04-06 03:48:00,
2013-04-05 23:50:00,36.6,22.8,30.04,NNW,344,0.0,0.0,57,0.00,,,0.00,Wunderground v.1.15,2013-04-06 03:50:00,
2013-04-05 23:54:00,36.2,22.4,30.04,North,350,0.0,3.0,57,0.00,,,0.00,Wunderground v.1.15,2013-04-06 03:54:00,
2013-04-05 23:56:00,36.2,22.4,30.04,North,351,1.0,3.0,57,0.00,,,0.00,Wunderground v.1.15,2013-04-06 03:56:00,